Location: Litvinovka
(48.6667°N, 34.3500°E)
Time: 15:58:56
(UTC+00:00)

Cosmos 1300 Rocket - Pass Details

Date: 18 September 2020
Orbit: 602 x 626 km, 82.5° (Epoch: 21 October)

Event Time Altitude Azimuth Distance (km) Brightness Sun altitude
Rises 16:39:42 0° 163° (SSE) 2,877 6.7 -9.2°
Reaches altitude 10° 16:42:04 10° 153° (SSE) 1,981 5.8 -9.6°
Maximum altitude 16:45:59 33° 90° (E) 1,062 4.2 -10.2°
Drops below altitude 10° 16:49:57 10° 27° (NNE) 2,007 6.1 -10.9°
Sets 16:52:22 0° 18° (NNE) 2,922 7.0 -11.2°
